Forside
METAR-TAF:

METAR-TAF

Lufthavne :

Linton-on-Ouse, England

Breddekreds: 54-03N, længdekreds: 001-15W, højde: 16 m

Aktuelle vejr

Denne rapport blev lavet for 32 minutter siden, kl. 01:50 UTC
Vind 2 kt fra vestsydvest
Temperatur 8°C
Fugtighed 93%
Tryk 1033 hPa
Sigt 10 km eller mere

METAR: EGXU 250150Z AUTO 25002KT 9999 NCD 08/07 Q1033

Tid: 03:22 (02:22 UTC)


TAF: fraværende

Vejrobservationer og prognoser fra mere end 4000 lufthavne (METAR og TAF).

De gule og røde prikker repræsenterer de meteorologiske stationer.

Flyt musen over at se navnet på stationen.

Så klik over at se vejr observationer og prognoser.

At skifte det kort: Klik på de grønne knapper med et sort kors for at zoome ind; på den grønne knap med en bindestreg for at zoome ud; eller på de grønne pile for tilstødende kort.


METAR-TAF: